KC9MVM Weather Reports


time (UTC)temp
C
wind
direction
speed
KPH
gust
KPH
rain 1hr
cm
rain 24hr
cm
rain mn
cm
humidity
%
barometer
mb
20260504000012 15 223 0.0 16.1 0.00 0.00 0.00 53 1010.2
20260503235507 15 232 3.2 16.1 0.00 0.00 0.00 53 1010.3
20260503235005 15 182 1.6 11.3 0.00 0.00 0.00 54 1010.2
20260503234516 15 200 0.0 11.3 0.00 0.00 0.00 53 1010.3
20260503234006 15 200 0.0 12.9 0.00 0.00 0.00 53 1010.3
20260503233507 15 157 0.0 12.9 0.00 0.00 0.00 54 1010.3
20260503233024 15 179 1.6 12.9 0.00 0.00 0.00 53 1010.2
20260503232505 15 186 3.2 14.5 0.00 0.00 0.00 53 1010.4
20260503232008 15 236 4.8 19.3 0.00 0.00 0.00 52 1010.5
20260503231523 15 187 6.4 25.7 0.00 0.00 0.00 52 1010.6
20260503231008 15 207 8.0 25.7 0.00 0.00 0.00 52 1010.6
20260503230504 15 183 6.4 24.1 0.00 0.00 0.00 52 1010.5
20260503230020 15 190 3.2 19.3 0.00 0.00 0.00 52 1010.4
20260503225506 15 207 8.0 19.3 0.00 0.00 0.00 52 1010.3
20260503225003 15 213 0.0 16.1 0.00 0.00 0.00 51 1010.4
20260503224517 15 217 0.0 16.1 0.00 0.00 0.00 51 1010.7
20260503224007 15 186 6.4 19.3 0.00 0.00 0.00 51 1010.6
20260503223511 15 203 8.0 22.5 0.00 0.00 0.00 52 1010.9
20260503223018 15 199 11.3 22.5 0.00 0.00 0.00 51 1010.9
20260503222508 15 215 4.8 17.7 0.00 0.00 0.00 51 1010.8
20260503222008 15 159 1.6 17.7 0.00 0.00 0.00 50 1010.7
20260503221526 15 190 3.2 17.7 0.00 0.00 0.00 52 1010.7
20260503221009 15 216 6.4 19.3 0.00 0.00 0.00 50 1011.0
20260503220509 15 244 8.0 22.5 0.00 0.00 0.00 49 1011.1
20260503220028 15 165 3.2 22.5 0.00 0.00 0.00 49 1011.0
20260503215503 15 160 0.0 16.1 0.00 0.00 0.00 51 1011.1
20260503215009 15 276 6.4 19.3 0.00 0.00 0.00 49 1011.2
20260503214509 15 128 6.4 22.5 0.00 0.00 0.00 48 1010.7
20260503214007 15 134 6.4 22.5 0.00 0.00 0.00 48 1010.9
20260503213509 15 84 9.7 29.0 0.00 0.00 0.00 50 1011.0
20260503213020 15 255 4.8 32.2 0.00 0.00 0.00 48 1011.0
20260503212505 15 222 9.7 32.2 0.00 0.00 0.00 51 1011.1
20260503212008 15 216 8.0 20.9 0.00 0.00 0.00 49 1011.1
20260503211532 15 224 8.0 20.9 0.00 0.00 0.00 50 1011.5
20260503211012 15 202 1.6 24.1 0.00 0.00 0.00 49 1011.7
20260503210506 15 105 4.8 24.1 0.00 0.00 0.00 49 1011.7
20260503210009 15 167 4.8 24.1 0.00 0.00 0.00 49 1011.9
20260503205503 15 105 3.2 35.4 0.00 0.00 0.00 46 1011.8
20260503205007 15 140 4.8 35.4 0.00 0.00 0.00 48 1012.0
20260503204513 15 192 12.9 32.2 0.00 0.00 0.00 47 1012.4
20260503204005 15 215 16.1 30.6 0.00 0.00 0.00 48 1012.2
20260503203504 15 179 11.3 32.2 0.00 0.00 0.00 47 1012.4
20260503203014 15 211 12.9 32.2 0.00 0.00 0.00 47 1012.4
20260503202509 16 201 9.7 30.6 0.00 0.00 0.00 47 1012.4
20260503202010 16 221 11.3 29.0 0.00 0.00 0.00 46 1012.6
20260503201508 16 144 6.4 24.1 0.00 0.00 0.00 47 1012.8
20260503201005 16 198 4.8 37.0 0.00 0.00 0.00 45 1013.0
20260503200509 16 195 8.0 37.0 0.00 0.00 0.00 45 1013.3
20260503200030 16 159 16.1 35.4 0.00 0.00 0.00 44 1013.4
20260503195503 16 128 9.7 29.0 0.00 0.00 0.00 44 1013.4
20260503195003 16 207 8.0 29.0 0.00 0.00 0.00 44 1013.7
20260503194509 16 155 9.7 22.5 0.00 0.00 0.00 44 1013.9
20260503194002 15 199 11.3 22.5 0.00 0.00 0.00 46 1014.2
20260503193504 15 214 6.4 27.4 0.00 0.00 0.00 48 1014.4
20260503193015 15 230 8.0 30.6 0.00 0.00 0.00 45 1014.6
20260503192507 16 263 4.8 30.6 0.00 0.00 0.00 46 1014.8
20260503192005 16 198 11.3 35.4 0.00 0.00 0.00 46 1014.8
20260503191518 16 141 11.3 35.4 0.00 0.00 0.00 44 1014.6
20260503191007 16 227 12.9 33.8 0.00 0.00 0.00 47 1014.7
20260503190508 16 233 12.9 32.2 0.00 0.00 0.00 46 1014.5
20260503190036 16 183 8.0 20.9 0.00 0.00 0.00 45 1014.5
20260503185509 16 230 6.4 24.1 0.00 0.00 0.00 49 1014.7
20260503185008 16 214 11.3 24.1 0.00 0.00 0.00 47 1014.8
20260503184514 16 204 9.7 25.7 0.00 0.00 0.00 44 1014.8
20260503184005 16 186 11.3 29.0 0.00 0.00 0.00 43 1014.6
20260503183504 16 162 6.4 29.0 0.00 0.00 0.00 47 1014.4
20260503183017 17 210 3.2 27.4 0.00 0.00 0.00 44 1014.5
20260503182505 17 212 14.5 32.2 0.00 0.00 0.00 45 1014.9
20260503182007 16 166 11.3 32.2 0.00 0.00 0.00 43 1015.0
20260503181518 16 220 6.4 33.8 0.00 0.00 0.00 45 1015.0
20260503181005 16 167 14.5 33.8 0.00 0.00 0.00 46 1015.2
20260503180506 16 196 8.0 33.8 0.00 0.00 0.00 45 1015.1
20260503180035 16 229 6.4 27.4 0.00 0.00 0.00 47 1015.3
20260503175511 16 214 14.5 30.6 0.00 0.00 0.00 44 1015.5
20260503175005 16 217 8.0 30.6 0.00 0.00 0.00 48 1015.6
20260503174522 16 254 8.0 30.6 0.00 0.00 0.00 49 1015.9
20260503174009 15 201 8.0 30.6 0.00 0.00 0.00 47 1015.9
20260503173505 16 230 8.0 24.1 0.00 0.00 0.00 48 1016.2
20260503173011 16 209 9.7 29.0 0.00 0.00 0.00 48 1016.0
20260503172504 16 205 8.0 40.2 0.00 0.00 0.00 45 1016.3
20260503172007 16 215 19.3 38.6 0.00 0.00 0.00 48 1016.4
20260503171530 16 186 4.8 25.7 0.00 0.00 0.00 51 1016.5
20260503171007 16 189 11.3 37.0 0.00 0.00 0.00 47 1016.6
20260503170508 15 200 11.3 35.4 0.00 0.00 0.00 47 1016.8
20260503151007 13 15 4.8 27.4 0.00 0.00 0.00 54 1018.0
20260503150505 13 194 11.3 25.7 0.00 0.00 0.00 51 1018.2
20260503131011 9 212 11.3 20.9 0.00 0.00 0.00 64 1018.4
20260503130512 9 210 9.7 20.9 0.00 0.00 0.00 66 1018.4
20260503110509 2 306 0.0 0.0 0.00 0.00 0.00 82 1018.2
20260503090510 2 306 0.0 0.0 0.00 0.00 0.00 82 1018.3
20260503081537 1 306 0.0 0.0 0.00 0.00 0.00 83 1018.3
20260503081009 1 306 0.0 0.0 0.00 0.00 0.00 83 1018.3
20260503080508 1 306 0.0 0.0 0.00 0.00 0.00 83 1018.4
20260503072509 1 306 0.0 0.0 0.00 0.00 0.00 83 1018.4
20260503072013 1 306 0.0 0.0 0.00 0.00 0.00 83 1018.4
20260503071528 1 306 0.0 0.0 0.00 0.00 0.00 83 1018.4
20260503071006 1 306 0.0 0.0 0.00 0.00 0.00 83 1018.3
20260503070508 1 306 0.0 0.0 0.00 0.00 0.00 83 1018.4
20260503055004 1 306 0.0 0.0 0.00 0.00 0.00 82 1018.7
20260503054525 1 306 0.0 0.0 0.00 0.00 0.00 82 1018.7
20260503054001 1 306 0.0 0.0 0.00 0.00 0.00 82 1018.8
20260503053501 1 306 0.0 0.0 0.00 0.00 0.00 81 1018.8
20260503053009 1 306 0.0 0.0 0.00 0.00 0.00 80 1018.8
20260503052502 1 306 0.0 0.0 0.00 0.00 0.00 80 1018.8
20260503052004 1 306 0.0 0.0 0.00 0.00 0.00 81 1018.8
20260503051507 1 306 0.0 0.0 0.00 0.00 0.00 81 1018.8
20260503051006 1 306 0.0 0.0 0.00 0.00 0.00 81 1018.8
20260503050502 1 306 0.0 0.0 0.00 0.00 0.00 80 1018.8
20260503050011 2 306 0.0 0.0 0.00 0.00 0.00 79 1018.8
20260503045507 2 306 0.0 0.0 0.00 0.00 0.00 80 1018.8
20260503045007 2 306 0.0 0.0 0.00 0.00 0.00 79 1018.8
20260503044508 2 306 0.0 0.0 0.00 0.00 0.00 79 1018.9
20260503044004 2 306 0.0 0.0 0.00 0.00 0.00 78 1018.9
20260503043507 2 306 0.0 0.0 0.00 0.00 0.00 78 1018.9
20260503043005 2 306 0.0 0.0 0.00 0.00 0.00 79 1018.9
20260503042502 2 306 0.0 0.0 0.00 0.00 0.00 79 1018.9
20260503042002 2 306 0.0 0.0 0.00 0.00 0.00 79 1018.9
20260503041506 2 306 0.0 0.0 0.00 0.00 0.00 79 1018.9
20260503041002 2 306 0.0 0.0 0.00 0.00 0.00 77 1019.0
20260503040505 2 306 0.0 0.0 0.00 0.00 0.00 76 1019.0
20260503040013 2 306 0.0 0.0 0.00 0.00 0.00 75 1019.0
20260503035503 2 306 0.0 0.0 0.00 0.00 0.00 77 1019.1
20260503035004 2 306 0.0 0.0 0.00 0.00 0.00 77 1019.1
20260503034514 2 306 0.0 0.0 0.00 0.00 0.00 77 1019.1
20260503034006 2 306 0.0 0.0 0.00 0.00 0.00 76 1019.2
20260503033503 2 306 0.0 0.0 0.00 0.00 0.00 76 1019.0
20260503033020 3 306 0.0 0.0 0.00 0.00 0.00 75 1018.9
20260503032506 3 306 0.0 0.0 0.00 0.00 0.00 74 1018.8
20260503032009 3 306 0.0 0.0 0.00 0.00 0.00 75 1018.8
20260503031507 3 306 0.0 0.0 0.00 0.00 0.00 73 1018.9
20260503031004 3 306 0.0 0.0 0.00 0.00 0.00 73 1018.9
20260503030502 3 306 0.0 0.0 0.00 0.00 0.00 73 1018.9
20260503030007 3 306 0.0 0.0 0.00 0.00 0.00 75 1018.9
20260503025502 3 306 0.0 0.0 0.00 0.00 0.00 73 1018.9
20260503025002 3 306 0.0 0.0 0.00 0.00 0.00 71 1018.9
20260503024513 3 306 0.0 0.0 0.00 0.00 0.00 71 1018.8
20260503024004 3 306 0.0 0.0 0.00 0.00 0.00 72 1018.7
20260503023508 3 306 0.0 0.0 0.00 0.00 0.00 70 1018.7
20260503023015 3 306 0.0 0.0 0.00 0.00 0.00 68 1018.7
20260503022503 4 306 0.0 0.0 0.00 0.00 0.00 69 1018.7
20260503022004 4 306 0.0 0.0 0.00 0.00 0.00 68 1018.7
20260503021525 4 306 0.0 0.0 0.00 0.00 0.00 68 1018.7
20260503021009 5 306 0.0 0.0 0.00 0.00 0.00 69 1018.7
20260503020502 5 306 0.0 0.0 0.00 0.00 0.00 67 1018.6
20260503020006 5 306 0.0 0.0 0.00 0.00 0.00 68 1018.6
20260503015506 5 306 0.0 0.0 0.00 0.00 0.00 66 1018.6
20260503015002 5 306 0.0 0.0 0.00 0.00 0.00 65 1018.6
20260503014511 5 306 0.0 0.0 0.00 0.00 0.00 65 1018.5
20260503014004 5 306 0.0 0.0 0.00 0.00 0.00 66 1018.5
20260503013506 5 306 0.0 0.0 0.00 0.00 0.00 62 1018.4
20260503013006 5 306 0.0 0.0 0.00 0.00 0.00 65 1018.4
20260503012507 6 306 0.0 0.0 0.00 0.00 0.00 64 1018.3
20260503012007 6 306 0.0 0.0 0.00 0.00 0.00 63 1018.3
20260503011521 6 306 0.0 0.0 0.00 0.00 0.00 63 1018.2
20260503011004 6 306 0.0 0.0 0.00 0.00 0.00 62 1018.3
20260503010508 6 306 0.0 0.0 0.00 0.00 0.00 58 1018.2
20260503010021 7 306 0.0 0.0 0.00 0.00 0.00 57 1018.2
20260503005502 7 306 0.0 0.0 0.00 0.00 0.00 56 1018.2
20260503005003 7 306 0.0 0.0 0.00 0.00 0.00 56 1018.3
20260503004520 7 306 0.0 0.0 0.00 0.00 0.00 52 1018.2
20260503004006 8 306 0.0 0.0 0.00 0.00 0.00 53 1018.2
20260503003503 8 306 0.0 0.0 0.00 0.00 0.00 48 1018.1
20260503003015 8 306 0.0 0.0 0.00 0.00 0.00 49 1018.1
20260503002504 9 306 0.0 0.0 0.00 0.00 0.00 46 1018.1
20260503002004 10 306 0.0 0.0 0.00 0.00 0.00 45 1018.1
20260503001516 10 306 0.0 0.0 0.00 0.00 0.00 43 1018.1
20260503001009 10 306 0.0 0.0 0.00 0.00 0.00 39 1018.1
20260503000513 11 306 0.0 0.0 0.00 0.00 0.00 42 1018.1